Weather observations for the past three days for
Duluth - Sky Harbor Airport
Imperial (Metric)
Date Time (cdt) Wind (mph) Vis. (mi.) Weather Sky Cond. Temperature (ºF) Relative Humidity Wind Chill (°F) Heat Index (°F) Pressure Precipitation (in)
Air Dwpt 6 hour altimeter (in) sea level (mb) 1 hr 3 hr 6 hr
Max. Min.
22 06:55 Calm 10.00 Overcast SCT038 BKN043 OVC070 62.6 57.2 83% 30.02 0.0
22 06:35 Calm 10.00 Partly Cloudy SCT039 SCT065 62.6 57.2 83% 30.02 0.0
22 06:15 SW 5 10.00 Fair CLR 62.6 59 88% 30.02 0.0
22 05:55 Calm 10.00 Partly Cloudy FEW070 FEW080 SCT090 62.6 59 88% 30.02 0.0
22 05:35 Calm 10.00 Overcast BKN075 OVC085 64.4 59 83% 30.02 0.0
22 05:15 E 3 10.00 Overcast FEW036 SCT043 OVC075 64.4 59 83% 30.03 0.0
22 04:55 Calm 10.00 Mostly Cloudy FEW034 SCT039 BKN049 64.4 59 83% 30.03 0.0
22 04:35 NE 5 10.00 Overcast SCT039 SCT047 OVC075 64.4 59 83% 30.04 0.0
22 04:15 NE 6 10.00 Overcast OVC042 64.4 59 83% 30.04 0.0
22 03:55 NE 6 10.00 Overcast OVC044 64.4 59 83% 30.04 0.0
22 03:35 NE 5 10.00 Overcast BKN045 OVC055 64.4 57.2 78% 30.05 0.0
22 03:15 NE 5 10.00 Overcast OVC045 64.4 59 83% 30.05 0.0
22 02:55 NE 6 10.00 Overcast OVC046 66.2 62.6 88% 30.05 0.0
22 02:35 NE 7 10.00 Overcast OVC050 66.2 62.6 88% 30.05 0.0
22 02:15 NE 7 10.00 Overcast BKN049 OVC060 66.2 62.6 88% 30.06 0.0
22 01:55 NE 12 10.00 Overcast OVC048 66.2 60.8 83% 30.07 0.0
22 01:35 NE 10 10.00 Overcast OVC049 66.2 60.8 83% 30.08 0.0
22 01:15 NE 12 10.00 Overcast OVC049 66.2 60.8 83% 30.09 0.0
22 00:55 NE 12 10.00 Overcast OVC049 66.2 60.8 83% 30.09 0.0
22 00:35 NE 9 10.00 Overcast BKN050 OVC055 66.2 60.8 83% 30.09 0.0
22 00:15 NE 9 10.00 Overcast BKN049 OVC055 66.2 60.8 83% 30.09 0.0
21 23:55 NE 10 10.00 Overcast BKN055 OVC070 66.2 60.8 83% 30.09 0.0
21 23:35 N 7 10.00 Overcast OVC055 66.2 60.8 83% 30.1 0.0
21 23:15 NE 9 10.00 Overcast OVC055 66.2 60.8 83% 30.1 0.0
21 22:55 NE 7 10.00 Overcast BKN055 OVC070 68 60.8 78% 30.1 0.0
21 22:35 NE 7 10.00 Overcast OVC055 68 59 73% 30.1 0.0
21 22:15 NE 8 10.00 Overcast OVC055 68 57.2 69% 30.1 0.0
21 21:55 NE 9 10.00 Overcast OVC055 68 57.2 69% 30.1 0.0
21 21:35 NE 10 10.00 Overcast OVC055 68 57.2 69% 30.1 0.0
21 21:15 NE 9 10.00 Mostly Cloudy SCT055 BKN065 68 59 73% 30.1 0.0
21 20:55 NE 12 10.00 Partly Cloudy SCT065 68 59 73% 30.1 0.0
21 20:35 NE 9 10.00 Fair CLR 68 59 73% 30.1 0.0
21 20:15 NE 10 10.00 Fair CLR 68 59 73% 30.1 0.0
21 19:55 NE 9 10.00 Fair CLR 68 59 73% 30.1 0.0
21 19:35 NE 10 10.00 Fair CLR 68 59 73% 30.1 0.0
21 19:15 NE 8 10.00 Fair CLR 68 60.8 78% 30.09 0.0
21 18:55 NE 7 10.00 Fair CLR 69.8 60.8 73% 30.1 0.0
21 18:35 NE 10 10.00 Fair CLR 69.8 60.8 73% 30.1 0.0
21 18:15 NE 12 10.00 Fair CLR 69.8 60.8 73% 30.11 0.0
21 17:55 NE 9 10.00 Fair CLR 69.8 59 69% 30.11 0.0
21 17:35 NE 12 10.00 Fair CLR 71.6 59 65% 30.12 0.0
21 17:15 NE 12 10.00 Fair CLR 71.6 59 65% 30.12 0.0
21 16:55 NE 12 10.00 Fair CLR 71.6 59 65% 30.13 0.0
21 16:35 NE 13 10.00 Fair CLR 71.6 60.8 69% 30.13 0.0
21 16:15 E 13 10.00 Fair CLR 71.6 60.8 69% 30.14 0.0
21 15:55 NE 13 10.00 Fair CLR 71.6 60.8 69% 30.14 0.0
21 15:35 NE 12 10.00 Fair CLR 71.6 60.8 69% 30.14 0.0
21 15:15 E 10 10.00 Fair CLR 71.6 60.8 69% 30.15 0.0
21 14:55 NE 10 10.00 Fair CLR 71.6 62.6 73% 30.15 0.0
21 14:35 NE 10 10.00 Fair CLR 71.6 60.8 69% 30.16 0.0
21 14:15 NE 12 10.00 Partly Cloudy FEW055 SCT065 69.8 62.6 78% 30.16 0.0
21 13:55 NE 13 10.00 Overcast OVC055 69.8 62.6 78% 30.17 0.0
21 13:35 NE 13 10.00 Overcast OVC050 69.8 62.6 78% 30.18 0.0
21 13:15 NE 14 10.00 Overcast OVC050 69.8 60.8 73% 30.18 0.0
21 12:55 NE 14 10.00 Partly Cloudy SCT050 69.8 62.6 78% 30.18 0.0
21 12:35 NE 13 10.00 Fair CLR 69.8 60.8 73% 30.18 0.0
21 12:15 NE 14 10.00 Fair CLR 69.8 62.6 78% 30.18 0.0
21 11:55 NE 16 10.00 Mostly Cloudy BKN050 68 62.6 83% 30.18 0.0
21 11:35 NE 17 10.00 Overcast OVC050 68 60.8 78% 30.18 0.0
21 11:15 NE 16 10.00 Mostly Cloudy BKN050 BKN075 68 60.8 78% 30.18 0.0
21 10:55 NE 15 10.00 Overcast BKN050 OVC075 68 60.8 78% 30.19 0.0
21 10:35 NE 14 10.00 Mostly Cloudy BKN050 BKN065 68 60.8 78% 30.19 0.0
21 10:15 NE 13 10.00 A Few Clouds FEW050 FEW065 68 62.6 83% 30.19 0.0
21 09:55 NE 14 10.00 Partly Cloudy FEW060 SCT070 SCT080 68 60.8 78% 30.19 0.0
21 09:35 NE 12 10.00 Overcast BKN065 OVC075 66.2 62.6 88% 30.18 0.0
21 09:15 NE 15 10.00 Overcast FEW011 OVC070 66.2 62.6 88% 30.18 0.0
21 08:55 NE 13 10.00 Overcast BKN012 BKN060 OVC070 66.2 62.6 88% 30.18 0.0
21 08:35 NE 14 10.00 Overcast BKN012 OVC060 66.2 62.6 88% 30.18 0.0
21 08:15 NE 15 10.00 Overcast OVC011 66.2 62.6 88% 30.17 0.0
21 07:55 NE 14 10.00 Overcast OVC011 66.2 62.6 88% 30.17 0.0
21 07:35 NE 14 10.00 Overcast OVC011 66.2 62.6 88% 30.17 0.0
21 07:15 NE 14 10.00 Overcast OVC010 66.2 62.6 88% 30.16 0.0
21 06:55 NE 12 10.00 Overcast OVC010 66.2 64.4 94% 30.16 0.0
21 06:35 NE 12 10.00 Overcast OVC011 66.2 62.6 88% 30.16 0.0
21 06:15 NE 12 10.00 Overcast OVC012 64.4 60.8 88% 30.16 0.0
21 05:55 NE 13 10.00 Mostly Cloudy BKN012 64.4 60.8 88% 30.16 0.0
21 05:35 NE 13 10.00 Mostly Cloudy BKN014 BKN075 64.4 60.8 88% 30.15 0.0
21 05:15 NE 13 10.00 Overcast OVC015 64.4 60.8 88% 30.15 0.0
21 04:55 NE 14 10.00 Overcast OVC015 64.4 60.8 88% 30.15 0.0
21 04:35 NE 14 10.00 Overcast OVC016 64.4 60.8 88% 30.15 0.0
21 04:15 NE 13 10.00 Overcast BKN017 BKN038 OVC049 64.4 59 83% 30.15 0.0
21 03:55 NE 12 10.00 Overcast FEW039 BKN049 OVC060 64.4 59 83% 30.15 0.0
21 03:35 NE 9 10.00 Overcast SCT040 BKN046 OVC060 64.4 59 83% 30.15 0.0
21 03:15 NE 8 10.00 Overcast SCT040 BKN050 OVC065 64.4 59 83% 30.14 0.0
21 02:55 NE 9 10.00 Overcast SCT036 SCT048 OVC065 64.4 59 83% 30.15 0.0
21 02:35 NE 10 10.00 Overcast FEW015 OVC036 64.4 59 83% 30.15 0.0
21 02:15 NE 12 10.00 Overcast BKN015 BKN034 OVC044 66.2 59 78% 30.14 0.0
21 01:55 NE 10 10.00 Overcast OVC015 66.2 59 78% 30.14 0.0
21 01:35 NE 12 10.00 Overcast OVC017 66.2 60.8 83% 30.15 0.0
21 01:15 NE 14 10.00 Overcast OVC015 66.2 59 78% 30.14 0.0
21 00:55 NE 13 10.00 Overcast OVC014 66.2 60.8 83% 30.14 0.0
21 00:35 NE 14 10.00 Overcast OVC014 64.4 60.8 88% 30.14 0.0
21 00:15 NE 15 10.00 Overcast OVC014 66.2 60.8 83% 30.13 0.0
20 23:55 NE 15 10.00 Overcast OVC013 64.4 60.8 88% 30.14 0.0
20 23:35 NE 13 10.00 Overcast OVC012 64.4 60.8 88% 30.13 0.0
20 22:55 NE 13 10.00 Overcast OVC011 64.4 60.8 88% 30.14 0.0
20 22:35 NE 14 10.00 Overcast OVC012 64.4 62.6 94% 30.14 0.0
20 22:15 NE 16 10.00 Overcast OVC013 64.4 62.6 94% 30.13 0.0
20 21:55 NE 15 10.00 Overcast OVC014 64.4 62.6 94% 30.13 0.0
20 21:35 NE 16 10.00 Overcast BKN012 OVC030 64.4 62.6 94% 30.12 0.0
20 21:15 NE 12 10.00 Overcast FEW009 FEW016 OVC030 66.2 64.4 94% 30.13 0.0
20 20:55 NE 10 G 17 10.00 Overcast BKN015 OVC029 66.2 64.4 94% 30.13 0.0
20 20:35 NE 16 10.00 Overcast FEW010 OVC015 66.2 64.4 94% 30.12 0.0
20 20:15 E 16 8.00 Light Rain SCT013 SCT055 BKN070 66.2 64.4 94% 30.12 0.0
20 19:55 NE 10 9.00 Light Rain FEW065 SCT080 BKN110 66.2 64.4 94% 30.11 0.0 0.01
20 19:35 NE 12 8.00 Light Rain FEW055 BKN075 OVC110 66.2 64.4 94% 30.12 0.0
20 19:15 NE 20 9.00 Thunderstorm in Vicinity Rain FEW055 SCT070 BKN110 66.2 64.4 94% 30.12 0.0
20 18:55 NE 20 10.00 A Few Clouds FEW007 66.2 64.4 94% 30.11 0.0
20 18:35 NE 17 G 26 10.00 Thunderstorm in Vicinity BKN006 66.2 64.4 94% 30.11 0.0
20 18:15 NE 23 10.00 Thunderstorm in Vicinity and Breezy OVC005 66.2 64.4 94% 30.1 0.0
20 17:55 NE 16 10.00 Thunderstorm in Vicinity OVC005 68 66.2 94% 30.08 0.0
20 17:35 NE 15 G 22 9.00 Overcast BKN005 OVC008 68 66.2 94% 30.08 0.0
20 17:15 NE 20 G 28 9.00 Mostly Cloudy BKN007 BKN023 BKN037 68 66.2 94% 30.07 0.0
20 16:55 NE 20 10.00 Mostly Cloudy FEW023 SCT039 BKN095 71.6 68 88% 30.07 0.0
20 16:35 W 5 10.00 Mostly Cloudy SCT075 BKN090 80.6 64.4 58% 82 30.05 0.0
20 16:15 N 5 10.00 Thunderstorm in Vicinity SCT075 BKN085 80.6 68 66% 83 30.04 0.0
20 15:55 Calm 10.00 Thunderstorm in Vicinity CLR 84.2 66.2 55% 87 30.04 0.0
20 15:35 E 5 10.00 Thunderstorm in Vicinity FEW085 84.2 66.2 55% 87 30.04 0.0
20 15:15 S 3 10.00 Thunderstorm in Vicinity CLR 86 64.4 49% 87 30.04 0.0
20 14:55 Calm 10.00 Thunderstorm in Vicinity SCT075 SCT085 84.2 62.6 48% 85 30.04 0.0
20 14:35 E 3 10.00 Mostly Cloudy BKN080 BKN085 84.2 62.6 48% 85 30.05 0.0
20 14:15 E 5 10.00 Mostly Cloudy BKN075 BKN100 82.4 64.4 55% 84 30.05 0.0
20 13:55 E 7 10.00 Mostly Cloudy BKN075 82.4 66.2 58% 85 30.06 0.0
20 13:35 E 5 10.00 Partly Cloudy SCT080 SCT090 82.4 64.4 55% 84 30.06 0.0
20 13:15 E 6 10.00 Partly Cloudy FEW048 SCT060 82.4 64.4 55% 84 30.06 0.0
20 12:55 NE 6 10.00 Mostly Cloudy SCT048 BKN060 82.4 64.4 55% 84 30.06 0.0
20 12:35 W 7 10.00 Partly Cloudy SCT050 SCT060 84.2 62.6 48% 85 30.05 0.0
20 12:15 W 8 10.00 A Few Clouds FEW049 84.2 62.6 48% 85 30.05 0.0
20 11:55 W 8 10.00 Fair CLR 84.2 62.6 48% 85 30.05 0.0
20 11:35 W 6 10.00 Fair CLR 84.2 60.8 45% 84 30.05 0.0
20 11:15 SW 6 10.00 Fair CLR 82.4 62.6 51% 83 30.06 0.0
20 10:55 Calm 10.00 Fair CLR 80.6 64.4 58% 82 30.06 0.0
20 10:35 SW 5 10.00 Fair CLR 80.6 66.2 62% 83 30.06 0.0
20 10:15 SW 6 9.00 Fair CLR 78.8 66.2 65% 81 30.06 0.0
20 09:55 SW 7 10.00 Fair CLR 77 66.2 69% 79 30.06 0.0
20 09:35 SW 9 10.00 Fair CLR 75.2 66.2 74% 77 30.06 0.0
20 09:15 SW 8 10.00 Partly Cloudy SCT070 73.4 66.2 78% 30.07 0.0
20 08:55 SW 9 10.00 Mostly Cloudy BKN065 71.6 64.4 78% 30.07 0.0
20 08:35 SW 8 10.00 A Few Clouds FEW060 71.6 64.4 78% 30.08 0.0
20 08:15 SW 9 10.00 Partly Cloudy FEW060 SCT090 69.8 64.4 83% 30.08 0.0
20 07:55 SW 10 10.00 Mostly Cloudy BKN065 BKN090 68 64.4 88% 30.08 0.0
20 07:35 SW 9 10.00 Mostly Cloudy SCT070 BKN090 66.2 64.4 94% 30.07 0.0
20 07:15 SW 10 10.00 Partly Cloudy SCT090 66.2 64.4 94% 30.06 0.0
20 06:55 SW 10 10.00 Partly Cloudy SCT065 66.2 62.6 88% 30.06 0.0
20 06:35 SW 9 10.00 Mostly Cloudy BKN065 BKN090 66.2 62.6 88% 30.06 0.0
20 06:15 SW 9 10.00 Partly Cloudy FEW060 SCT090 66.2 62.6 88% 30.05 0.0
20 05:55 SW 10 10.00 Mostly Cloudy BKN060 66.2 62.6 88% 30.05 0.0
20 05:35 SW 8 10.00 Overcast OVC060 66.2 62.6 88% 30.05 0.0
20 05:15 SW 9 10.00 Overcast OVC060 66.2 62.6 88% 30.05 0.0
20 04:55 SW 12 10.00 Overcast OVC060 66.2 62.6 88% 30.04 0.0
20 04:35 SW 10 10.00 Overcast BKN060 OVC110 66.2 62.6 88% 30.03 0.0
20 04:15 SW 10 10.00 Overcast FEW055 OVC110 66.2 62.6 88% 30.03 0.0
20 03:55 SW 8 10.00 Overcast BKN055 OVC110 66.2 62.6 88% 30.02 0.0
20 03:35 SW 9 10.00 Overcast BKN055 OVC110 66.2 62.6 88% 30.02 0.0
20 03:15 SW 9 10.00 Overcast BKN055 OVC110 66.2 62.6 88% 30.02 0.0
20 02:55 SW 9 10.00 Overcast BKN060 OVC110 66.2 62.6 88% 30.02 0.0
20 02:35 SW 9 10.00 Overcast BKN060 OVC100 66.2 62.6 88% 30.02 0.0
20 02:15 SW 10 10.00 Overcast BKN060 OVC100 68 62.6 83% 30.03 0.0
20 01:55 SW 12 10.00 Overcast OVC065 68 62.6 83% 30.03 0.0
20 01:35 SW 12 10.00 Overcast OVC070 68 62.6 83% 30.03 0.0
20 01:15 SW 12 10.00 Overcast OVC070 68 62.6 83% 30.03 0.0
20 00:55 SW 9 10.00 Overcast OVC070 69.8 62.6 78% 30.03 0.0
20 00:35 SW 8 10.00 Overcast OVC070 69.8 60.8 73% 30.03 0.0
20 00:15 SW 10 10.00 Overcast OVC070 69.8 60.8 73% 30.03 0.0
19 23:55 SW 10 10.00 Overcast OVC070 71.6 60.8 69% 30.03 0.0
19 23:35 SW 13 10.00 Overcast OVC070 71.6 60.8 69% 30.03 0.0
19 23:15 SW 10 10.00 Overcast OVC070 71.6 60.8 69% 30.03 0.0
19 22:55 SW 12 10.00 Overcast OVC070 71.6 60.8 69% 30.03 0.0
19 22:35 SW 10 10.00 Overcast OVC070 73.4 60.8 65% 30.02 0.0
19 22:15 SW 9 10.00 Overcast OVC070 73.4 60.8 65% 30.02 0.0
19 21:55 SW 9 9.00 Overcast OVC075 75.2 60.8 61% 77 30.02 0.0
19 21:35 SW 8 10.00 Mostly Cloudy BKN075 75.2 60.8 61% 77 30.02 0.0
19 21:15 SW 7 10.00 Fair CLR 77 60.8 57% 79 30.02 0.0
19 20:55 SW 8 10.00 Fair CLR 77 60.8 57% 79 30.01 0.0
19 20:35 SW 9 10.00 Fair CLR 78.8 60.8 54% 80 30.01 0.0
19 20:15 SW 9 10.00 Fair CLR 80.6 60.8 51% 81 30.01 0.0
19 19:55 SW 8 10.00 Fair CLR 80.6 59 48% 81 30.01 0.0
19 19:35 SW 9 10.00 Fair CLR 80.6 59 48% 81 30.01 0.0
19 19:15 SW 12 10.00 Fair CLR 82.4 59 45% 82 30.01 0.0
19 18:55 SW 14 10.00 Fair CLR 82.4 57.2 42% 82 30 0.0
19 18:35 SW 9 G 16 10.00 A Few Clouds FEW070 82.4 57.2 42% 82 30 0.0
19 18:15 SW 10 G 16 10.00 Partly Cloudy SCT070 82.4 57.2 42% 82 30 0.0
19 17:55 SW 13 10.00 Fair CLR 82.4 57.2 42% 82 30 0.0
19 17:35 SW 15 10.00 Fair CLR 84.2 57.2 40% 83 30 0.0
19 17:15 SW 14 10.00 Fair CLR 84.2 57.2 40% 83 30 0.0
19 16:55 SW 7 G 17 10.00 A Few Clouds FEW065 84.2 57.2 40% 83 30.01 0.0
19 16:35 W 9 G 16 10.00 A Few Clouds FEW065 84.2 57.2 40% 83 30.01 0.0
19 16:15 W 13 10.00 A Few Clouds FEW065 FEW080 84.2 57.2 40% 83 30.01 0.0
19 15:55 SW 12 10.00 Mostly Cloudy SCT060 BKN075 84.2 55.4 37% 83 30.02 0.0
19 15:35 SW 10 G 18 10.00 Mostly Cloudy BKN060 BKN070 84.2 57.2 40% 83 30.02 0.0
19 15:15 S 12 10.00 A Few Clouds FEW060 84.2 55.4 37% 83 30.02 0.0
19 14:55 SW 7 G 14 10.00 Fair CLR 84.2 55.4 37% 83 30.03 0.0
19 14:35 W 10 G 16 10.00 A Few Clouds FEW060 84.2 55.4 37% 83 30.03 0.0
19 14:15 SW 15 10.00 A Few Clouds FEW060 82.4 55.4 40% 82 30.03 0.0
19 13:55 W 14 10.00 A Few Clouds FEW060 82.4 55.4 40% 82 30.04 0.0
19 13:35 SW 14 10.00 A Few Clouds FEW060 82.4 55.4 40% 82 30.05 0.0
19 13:15 SW 13 G 18 10.00 A Few Clouds FEW055 82.4 55.4 40% 82 30.05 0.0
19 12:55 Vrbl 7 G 18 10.00 A Few Clouds FEW060 80.6 55.4 42% 81 30.05 0.0
19 12:35 SW 14 G 21 10.00 Partly Cloudy SCT060 80.6 55.4 42% 81 30.06 0.0
19 12:15 W 13 G 18 10.00 Fair CLR 80.6 57.2 45% 81 30.06 0.0
19 11:55 SW 13 10.00 A Few Clouds FEW050 80.6 55.4 42% 81 30.06 0.0
19 11:35 SW 10 3.00 A Few Clouds with Haze FEW050 78.8 55.4 45% 79 30.07 0.0
19 11:15 SW 9 6.00 Fair with Haze CLR 78.8 55.4 45% 79 30.07 0.0
19 10:55 SW 9 4.00 Fair with Haze CLR 78.8 57.2 48% 80 30.07 0.0
19 10:35 SW 10 10.00 Fair CLR 77 57.2 51% 79 30.08 0.0
19 10:15 SW 8 9.00 Fair CLR 77 57.2 51% 79 30.08 0.0
19 09:55 SW 9 9.00 Fair CLR 75.2 57.2 54% 78 30.09 0.0
19 09:35 SW 8 9.00 A Few Clouds FEW055 73.4 57.2 57% 30.1 0.0
19 09:15 SW 10 9.00 A Few Clouds FEW055 71.6 57.2 61% 30.1 0.0
19 08:55 SW 10 10.00 Fair CLR 69.8 57.2 64% 30.11 0.0
19 08:35 SW 10 10.00 A Few Clouds FEW055 68 57.2 69% 30.11 0.0
19 08:15 SW 12 10.00 Mostly Cloudy BKN055 66.2 57.2 73% 30.11 0.0
19 07:55 SW 10 10.00 Mostly Cloudy BKN060 64.4 57.2 78% 30.11 0.0
19 07:35 SW 9 10.00 Mostly Cloudy BKN055 64.4 57.2 78% 30.11 0.0
19 07:15 SW 9 10.00 Mostly Cloudy BKN060 62.6 57.2 83% 30.11 0.0
Date Time (cdt) Wind (mph) Vis. (mi.) Weather Sky Cond. Air Dwpt Max. Min. Relative Humidity Wind Chill (°F) Heat Index (°F) altimeter (in) sea level (mb) 1 hr 3 hr 6 hr
6 hour
Temperature (ºF) Pressure Precipitation (in)